Time,TemperatureF,DewpointF,PressureIn,WindDirection,WindDirectionDegrees,WindSpeedMPH,WindSpeedGustMPH,Humidity,HourlyPrecipIn,Conditions,Clouds,dailyrainin,SoftwareType,DateUTC
2013-01-04 00:03:00,33.0,18.0,30.19,WSW,256,7.0,-999.0,54,-99.99,,,-99.99,,2013-01-04 05:03:00,
2013-01-04 00:12:00,33.0,18.0,30.19,WSW,256,7.0,-999.0,54,-99.99,,,-99.99,,2013-01-04 05:12:00,
2013-01-04 00:22:00,34.0,18.0,30.18,West,265,9.0,-999.0,52,-99.99,,,-99.99,,2013-01-04 05:22:00,
2013-01-04 00:33:00,34.0,19.0,30.18,NW,315,7.0,-999.0,53,-99.99,,,-99.99,,2013-01-04 05:33:00,
2013-01-04 00:42:00,34.0,19.0,30.18,NW,315,7.0,-999.0,53,-99.99,,,-99.99,,2013-01-04 05:42:00,
2013-01-04 00:53:00,34.0,19.0,30.18,NW,318,4.0,-999.0,53,-99.99,,,-99.99,,2013-01-04 05:53:00,
2013-01-04 01:02:00,33.0,19.0,30.17,NW,306,2.0,-999.0,55,-99.99,,,-99.99,,2013-01-04 06:02:00,
2013-01-04 01:12:00,33.0,19.0,30.17,NW,306,2.0,-999.0,55,-99.99,,,-99.99,,2013-01-04 06:12:00,
2013-01-04 01:22:00,33.0,19.0,30.17,NNW,337,3.0,-999.0,55,-99.99,,,-99.99,,2013-01-04 06:22:00,
2013-01-04 01:33:00,33.0,19.0,30.17,West,261,3.0,-999.0,55,-99.99,,,-99.99,,2013-01-04 06:33:00,
2013-01-04 01:42:00,33.0,19.0,30.17,West,261,3.0,-999.0,55,-99.99,,,-99.99,,2013-01-04 06:42:00,
2013-01-04 01:52:00,33.0,19.0,30.18,West,278,4.0,-999.0,55,-99.99,,,-99.99,,2013-01-04 06:52:00,
2013-01-04 02:02:00,33.0,19.0,30.18,West,271,5.0,-999.0,55,-99.99,,,-99.99,,2013-01-04 07:02:00,
2013-01-04 02:12:00,33.0,19.0,30.18,West,271,5.0,-999.0,55,-99.99,,,-99.99,,2013-01-04 07:12:00,
2013-01-04 02:22:00,33.0,19.0,30.19,WSW,244,5.0,-999.0,55,-99.99,,,-99.99,,2013-01-04 07:22:00,
2013-01-04 02:32:00,33.0,19.0,30.19,West,277,5.0,-999.0,55,-99.99,,,-99.99,,2013-01-04 07:32:00,
2013-01-04 02:42:00,33.0,19.0,30.19,West,277,5.0,-999.0,55,-99.99,,,-99.99,,2013-01-04 07:42:00,
2013-01-04 02:52:00,33.0,19.0,30.19,WSW,247,3.0,-999.0,55,-99.99,,,-99.99,,2013-01-04 07:52:00,
2013-01-04 03:02:00,32.0,18.0,30.20,West,268,4.0,-999.0,55,-99.99,,,-99.99,,2013-01-04 08:02:00,
2013-01-04 03:12:00,32.0,18.0,30.20,West,268,4.0,-999.0,55,-99.99,,,-99.99,,2013-01-04 08:12:00,
2013-01-04 03:22:00,32.0,19.0,30.20,WSW,256,5.0,-999.0,57,-99.99,,,-99.99,,2013-01-04 08:22:00,
2013-01-04 03:32:00,32.0,18.0,30.21,WSW,247,5.0,-999.0,56,-99.99,,,-99.99,,2013-01-04 08:32:00,
2013-01-04 03:42:00,32.0,18.0,30.21,WSW,247,5.0,-999.0,56,-99.99,,,-99.99,,2013-01-04 08:42:00,
2013-01-04 03:53:00,32.0,18.0,30.21,West,270,4.0,-999.0,56,-99.99,,,-99.99,,2013-01-04 08:53:00,
2013-01-04 04:02:00,31.0,18.0,30.21,WSW,243,3.0,-999.0,57,-99.99,,,-99.99,,2013-01-04 09:02:00,